COSMOS 1275 DEB, 42171

Orbit data source: Space-Track

COSMOS 1275 DEB, 42171 is space debris in LEO originally from a launch on Thu, 04 Jun 1981 UTC launched from the Plesetsk Missile And Space Complex (PKMTR). Debris objects in space refer to the collection of defunct objects orbiting the Earth. Examples of debris include non-operational satellites, rocket bodies, and fragments generated from explosions, collisions, or faulty payload assembly.

Loading next visibility...
Identifier
42171, 1981-053SK
Orbit
LEO
Country
Flag of CISCIS
Related business
Manufacturer
Unknown
Mission
Spacecraft
Bus & Motor
Unknown
Mass
Unknown
Launch date (UTC)
1981-06-04 (45 years ago)
Launch vehicle
Unknown
Launch site
Plesetsk Missile And Space Complex (PKMTR)
Object type
Payload
Rocket body
Debris
Shape & HBR
Unknown shape, 0.1 m
Radar Cross Section
Small (<0.1 m²)

Expand to show TLE details & history
Last TLE update: 6 days ago

TLE from 6 days ago
0 COSMOS 1275 DEB
1 42171U 81053SK  26088.29270079  .00003125  00000-0  15293-2 0  9995
2 42171  83.0768 290.4346 0039947 243.3512 116.3574 14.17231698 94023
Epoch: 2026-03-29T07:01Z
TLE epoch observation values (Epoch: 2026-03-29T07:01:29.348Z)
Latitude
-0.00006°
Longitude
-1.63837°
Altitude
850.579 km
Speed
7.421 km/s
True Right ascension
19h 21m 44s
True Declination
0° 00' 00"
Sunlit
Object was in daylight at epoch
Visualization orbit readout
Latitude
Unknown
Longitude
Unknown
Altitude
Unknown
Speed
Unknown
Apparent Right ascension
Unknown
Apparent Declination
Unknown
Sunlit
N/A
Visualization observer readout
Local Sidereal Time
19:55:56
Azimuth
Unknown
Elevation
Unknown
Doppler factor
Unknown
Orbital elements
Apogee altitude
860.617 km
Perigee altitude
803.014 km
Semi-major axis
7,209.953 km
Eccentricity
0.00399
Inclination
83.0768°
RAAN
290.4346°
Arg. of periapsis
243.3512°
True anomaly
116.76666°
Mean anomaly
116.3574°
Eccentric anomaly
116.56212°
Mean motion
3.54523 °/min
Orbital period
101.54 mins
BSTAR
0.0015293
Loading maneuver chart data...
Computing Atmospheric mass density...
Loading historical data...
Loading historical data...
Loading historical data...
Loading historical data...
Loading historical data...
Loading historical data...
Loading historical data...

Documentation

Showing up to 5 results
|